Cişmichioi

Moldova     45˚32′37″N   28˚22′54″E
temp.,
°C
wind,
m/s
gust,
m/s
humid.,
%
clouds,
%
prec.,
mm/h
press.,
hPa
HPBL,
m
28 november, sat
sat2823:00+5˚n11626 0.0 102138
02:00+4˚nne126743 0.0 102035
05:00+3˚nnw1173100 0.0 101941
08:00+2˚nnw126993 0.0 101945
11:00+6˚n235216 0.0 1019333
14:00+8˚nw11459 0.0 1018497
17:00+5˚nnw11582 0.0 101884
20:00+4˚nne227430 0.0 101946
29 november, sun
sun2923:00+3˚nne238259 0.0 101947
02:00+2˚ne338734 0.0 101961
05:00+3˚ne2386100 0.0 101880
08:00+3˚ne238999 0.0 101975
11:00+6˚ne2373100 0.0 1019330
14:00+7˚nne1261100 0.0 1019531
17:00+6˚ene2268100 0.0 101970
20:00+5˚nne2373100 0.0 102070
30 november, mon
mon3023:00+4˚ne3583100 0.0 1020126
02:00+4˚ne3586100 0.0 1020123
05:00+3˚nne3687100 0.0 1020200
08:00+4˚ne61090100 0.9 1021398
11:00+4˚nne6989100 3.2 1022446
14:00+3˚n81195100 5.8 1022408
17:00+2˚n91295100 1.8 1023467
20:00+2˚n81296100 3.8 1024558
1 december, tue
tue123:00+2˚n91396100 0.9 1025625
02:00+2˚n81385100 0.9 1025624
05:00+1˚n7127899 0.0 1025546
08:00n7128077 0.0 1026509
11:00+2˚n7107098 0.0 1026570
14:00+3˚n697398 0.0 1025642
17:00+1˚n6993100 0.1 1024476
20:00+1˚n589398 0.1 1025315
2 december, wed
wed223:00+2˚n569199 0.0 1025232
02:00+3˚n469499 0.1 1025235
05:00+3˚nne5791100 0.1 1025354
08:00+3˚nne4691100 0.1 1025413
11:00+5˚ne457483 0.0 1026542
14:00+6˚nne346577 0.0 1024786
17:00+4˚nne347494 0.0 1025180
20:00+3˚ne478384 0.0 1025222